Regional Weather Roundup
Issued by NWS

Home | Current Version | Previous Version | Graphics & Text | Print | Product List | Glossary On
Versions: 1 2 3 4 5 6 7 8 9 10 11 12 13 14 15 16 17 18 19 20 21 22 23 24 25 26 27 28 29 30 31 32 33 34 35 36 37 38 39 40 41 42 43 44 45 46 47 48 49 50
000
ASUS43 KFSD 030610
RWRSD

WEATHER ROUNDUP FOR SOUTH DAKOTA
NATIONAL WEATHER SERVICE SIOUX FALLS SD
1200 AM CST SAT DEC 03 2016

NOTE: "FAIR" INDICATES FEW OR NO CLOUDS BELOW 12,000 FEET WITH NO
SIGNIFICANT WEATHER AND/OR OBSTRUCTIONS TO VISIBILITY.


SDZ001>005-009-010-012>017-030700-
NORTHWEST AND NORTH CENTRAL SOUTH DAKOTA

CITY           SKY/WX    TMP DP  RH WIND       PRES   REMARKS
BUFFALO          N/A     23  20  88 S7        30.00F WCI  15
FAITH            N/A     19  19 100 S14       30.14F WCI   6
MOBRIDGE       CLOUDY    29  25  85 S9        30.17F WCI  20
$$

SDZ012>016-024>037-041>051-057-063-072>074-030700-
SOUTHWEST AND SOUTH CENTRAL SOUTH DAKOTA

CITY           SKY/WX    TMP DP  RH WIND       PRES   REMARKS
RAPID CTY ARPT CLEAR     20  17  88 SE5       30.12F WCI  13
PIERRE         FOG       19  17  92 S6        30.22S VSB 1   WCI  11
CUSTER         PTCLDY    15  12  88 W5        30.06F WCI   8
ELLSWORTH AFB  CLEAR     28  21  76 S5        30.10F WCI  23
PHILIP         CLEAR     11  10  96 W5        30.19F WCI   3
PINE RIDGE     CLEAR     21  19  92 W5        30.16S WCI  15
SPEARFISH      FAIR      34  19  55 SW20G26   30.05F WCI  22
WINNER         FAIR      26  22  84 SE6       30.24R WCI  19
$$

SDZ004>011-016>023-039-040-030700-
NORTHEAST SOUTH DAKOTA

CITY           SKY/WX    TMP DP  RH WIND       PRES   REMARKS
ABERDEEN       CLOUDY    25  20  81 SE3       30.28S
WATERTOWN      CLOUDY    24  18  77 W5        30.26S WCI  18
SISSETON         N/A     27  19  72 W5        30.28F WCI  22
$$

SDZ017-020-022-023-036>040-048>070-030700-
SOUTHEAST SOUTH DAKOTA

CITY           SKY/WX    TMP DP  RH WIND       PRES   REMARKS
SIOUX FALLS    CLOUDY    29  24  82 N5        30.29F WCI  24
HURON          CLOUDY    29  27  92 SE6       30.29F WCI  23
CHAMBERLAIN    FOG       26  25  99 SE5       30.27R VSB 3/4 WCI  20
MITCHELL       CLEAR     29  27  92 SE5       30.30F WCI  24
YANKTON        CLEAR     27  25  93 CALM      30.31R
$$

ABBREVIATIONS USED IN REMARKS
   TC - TEMPERATURE IN CELSIUS
  WCI - WIND CHILL INDEX
   HX - HEAT INDEX
  VSB - VISIBILITY




USA.gov is the U.S. government's official web portal to all federal, state and local government web resources and services.